TimeCDT,TemperatureF,Dew PointF,Humidity,Sea Level PressureIn,VisibilityMPH,Wind Direction,Wind SpeedMPH,Gust SpeedMPH,PrecipitationIn,Events,Conditions,WindDirDegrees,DateUTC
12:16 AM,32.0,30.2,93,29.76,1.2,North,5.8,-,0.01,Snow,Light Snow,10,2013-03-11 05:16:00
12:36 AM,30.2,30.2,100,29.76,2.0,North,4.6,-,0.02,Snow,Light Snow,360,2013-03-11 05:36:00
12:56 AM,30.2,28.4,93,29.75,2.5,North,5.8,-,N/A,Snow,Light Snow,10,2013-03-11 05:56:00
1:16 AM,30.2,28.4,93,29.75,3.0,North,5.8,-,0.02,Snow,Light Snow,360,2013-03-11 06:16:00
1:36 AM,30.2,28.4,93,29.75,3.0,North,3.5,-,0.04,Snow,Light Snow,360,2013-03-11 06:36:00
1:56 AM,30.2,28.4,93,29.75,1.8,North,5.8,-,N/A,Snow,Light Snow,10,2013-03-11 06:56:00
2:16 AM,30.2,28.4,93,29.75,2.0,North,3.5,-,0.01,Snow,Light Snow,360,2013-03-11 07:16:00
2:36 AM,30.2,28.4,93,29.74,1.8,North,4.6,-,0.02,Snow,Light Snow,360,2013-03-11 07:36:00
2:56 AM,30.2,28.4,93,29.74,2.0,North,3.5,-,N/A,Snow,Light Snow,350,2013-03-11 07:56:00
3:16 AM,30.2,28.4,93,29.73,2.0,NNW,5.8,-,N/A,Snow,Light Snow,330,2013-03-11 08:16:00
3:36 AM,30.2,28.4,93,29.72,2.5,NNW,5.8,-,0.01,Snow,Light Snow,340,2013-03-11 08:36:00
3:56 AM,30.2,28.4,93,29.72,3.0,NNW,6.9,-,N/A,Snow,Light Snow,340,2013-03-11 08:56:00
4:16 AM,30.2,28.4,93,29.71,4.0,NNW,4.6,-,N/A,Snow,Light Snow,340,2013-03-11 09:16:00
4:36 AM,30.2,28.4,93,29.70,4.0,NNW,5.8,-,N/A,Snow,Light Snow,330,2013-03-11 09:36:00
4:56 AM,30.2,28.4,93,29.70,2.5,NNW,5.8,-,N/A,Snow,Light Snow,330,2013-03-11 09:56:00
5:16 AM,30.2,28.4,93,29.70,3.0,NW,5.8,-,0.01,Snow,Light Snow,320,2013-03-11 10:16:00
5:36 AM,28.4,26.6,93,29.71,5.0,NNW,6.9,-,0.01,Snow,Light Snow,330,2013-03-11 10:36:00
5:56 AM,28.4,26.6,93,29.70,10.0,NNW,8.1,-,N/A,Snow,Light Snow,330,2013-03-11 10:56:00
6:16 AM,28.4,26.6,93,29.71,5.0,NNW,6.9,-,N/A,Snow,Light Snow,330,2013-03-11 11:16:00
6:36 AM,28.4,26.6,93,29.71,5.0,NNW,6.9,-,N/A,Snow,Light Snow,330,2013-03-11 11:36:00
6:56 AM,28.4,26.6,93,29.71,5.0,NNW,6.9,-,N/A,Snow,Light Snow,330,2013-03-11 11:56:00
7:16 AM,28.4,26.6,93,29.71,5.0,NNW,8.1,-,N/A,Snow,Light Snow,330,2013-03-11 12:16:00
7:36 AM,28.4,26.6,93,29.71,2.0,NNW,6.9,-,0.01,Snow,Light Snow,330,2013-03-11 12:36:00
7:56 AM,28.4,26.6,93,29.72,0.8,NNW,6.9,-,N/A,Snow,Light Snow,330,2013-03-11 12:56:00
8:16 AM,28.4,26.6,93,29.71,0.5,NNW,5.8,-,N/A,Snow,Snow,330,2013-03-11 13:16:00
8:36 AM,28.4,26.6,93,29.71,0.5,NNW,4.6,-,N/A,Snow,Snow,330,2013-03-11 13:36:00
8:56 AM,28.4,26.6,93,29.71,0.5,NW,4.6,-,N/A,Snow,Light Snow,320,2013-03-11 13:56:00
9:16 AM,28.4,26.6,93,29.71,0.5,NNW,4.6,-,0.01,Snow,Light Snow,330,2013-03-11 14:16:00
9:36 AM,28.4,26.6,93,29.71,0.5,NW,5.8,-,0.02,Snow,Light Snow,320,2013-03-11 14:36:00
9:56 AM,28.4,28.4,100,29.71,0.8,NW,9.2,-,N/A,Snow,Light Snow,320,2013-03-11 14:56:00
10:16 AM,28.4,28.4,100,29.71,1.2,NW,10.4,-,N/A,Snow,Light Snow,320,2013-03-11 15:16:00
10:36 AM,28.4,28.4,100,29.70,1.5,NNW,10.4,-,0.01,Snow,Light Snow,330,2013-03-11 15:36:00
10:56 AM,30.2,28.4,93,29.70,1.5,NNW,11.5,-,N/A,Snow,Light Snow,330,2013-03-11 15:56:00
11:16 AM,30.2,28.4,93,29.69,1.5,NW,11.5,-,0.01,Snow,Light Snow,320,2013-03-11 16:16:00
11:36 AM,30.2,28.4,93,29.69,1.8,NW,12.7,-,0.02,Snow,Light Snow,320,2013-03-11 16:36:00
11:56 AM,30.2,28.4,93,29.69,2.5,NW,12.7,16.1,N/A,Snow,Light Snow,320,2013-03-11 16:56:00
12:16 PM,30.2,28.4,93,29.69,7.0,NW,12.7,17.3,N/A,,Overcast,320,2013-03-11 17:16:00
12:36 PM,30.2,28.4,93,29.69,10.0,NW,13.8,18.4,N/A,,Overcast,320,2013-03-11 17:36:00
12:56 PM,30.2,28.4,93,29.69,10.0,NW,15.0,19.6,N/A,,Overcast,320,2013-03-11 17:56:00
1:16 PM,30.2,28.4,93,29.69,10.0,NW,12.7,20.7,N/A,,Overcast,310,2013-03-11 18:16:00
1:36 PM,30.2,28.4,93,29.68,10.0,NW,16.1,-,N/A,,Overcast,320,2013-03-11 18:36:00
1:56 PM,30.2,28.4,93,29.68,10.0,NW,12.7,20.7,N/A,,Overcast,310,2013-03-11 18:56:00
2:16 PM,30.2,28.4,93,29.68,10.0,NW,11.5,18.4,0.01,,Overcast,320,2013-03-11 19:16:00
2:36 PM,30.2,28.4,93,29.68,10.0,NNW,12.7,18.4,0.01,,Overcast,330,2013-03-11 19:36:00
2:56 PM,30.2,28.4,93,29.68,10.0,NW,13.8,19.6,N/A,,Overcast,320,2013-03-11 19:56:00
3:16 PM,30.2,28.4,93,29.69,10.0,NW,12.7,18.4,N/A,,Overcast,320,2013-03-11 20:16:00
3:56 PM,30.2,26.6,86,29.69,10.0,NW,9.2,-,N/A,,Overcast,320,2013-03-11 20:56:00
4:16 PM,30.2,26.6,86,29.70,10.0,NW,10.4,16.1,N/A,,Overcast,310,2013-03-11 21:16:00
4:36 PM,30.2,26.6,86,29.71,10.0,NNW,10.4,-,N/A,,Overcast,330,2013-03-11 21:36:00
4:56 PM,30.2,26.6,86,29.71,10.0,NNW,15.0,18.4,N/A,,Overcast,330,2013-03-11 21:56:00
5:16 PM,30.2,26.6,86,29.71,10.0,NW,9.2,-,N/A,,Overcast,320,2013-03-11 22:16:00
5:36 PM,30.2,26.6,86,29.72,10.0,NNW,12.7,-,N/A,,Overcast,330,2013-03-11 22:36:00
5:56 PM,30.2,26.6,86,29.72,10.0,NW,10.4,17.3,N/A,,Overcast,320,2013-03-11 22:56:00
6:16 PM,30.2,26.6,86,29.73,10.0,NW,11.5,18.4,N/A,,Overcast,320,2013-03-11 23:16:00
6:35 PM,30.2,26.6,86,29.73,10.0,NW,13.8,20.7,N/A,,Overcast,320,2013-03-11 23:35:00
6:56 PM,28.4,24.8,86,29.74,10.0,NNW,10.4,20.7,N/A,,Overcast,330,2013-03-11 23:56:00
7:16 PM,28.4,24.8,86,29.75,10.0,NW,9.2,-,N/A,,Overcast,320,2013-03-12 00:16:00
7:35 PM,28.4,24.8,86,29.75,10.0,NW,9.2,-,N/A,,Overcast,310,2013-03-12 00:35:00
7:56 PM,28.4,24.8,86,29.76,10.0,NW,11.5,-,N/A,,Overcast,320,2013-03-12 00:56:00
8:16 PM,28.4,24.8,86,29.76,10.0,NW,8.1,-,N/A,,Overcast,320,2013-03-12 01:16:00
8:36 PM,28.4,24.8,86,29.77,10.0,WNW,5.8,-,N/A,,Overcast,300,2013-03-12 01:36:00
8:56 PM,28.4,24.8,86,29.78,10.0,WNW,6.9,-,N/A,,Overcast,300,2013-03-12 01:56:00
9:16 PM,28.4,23.0,80,29.79,10.0,WNW,6.9,-,N/A,,Overcast,300,2013-03-12 02:16:00
9:36 PM,28.4,23.0,80,29.79,10.0,WNW,4.6,-,N/A,,Overcast,300,2013-03-12 02:36:00
9:56 PM,28.4,23.0,80,29.80,10.0,WNW,5.8,-,N/A,,Overcast,290,2013-03-12 02:56:00
10:16 PM,28.4,23.0,80,29.81,10.0,WNW,4.6,-,N/A,,Overcast,290,2013-03-12 03:16:00
10:36 PM,28.4,23.0,80,29.82,10.0,WNW,8.1,-,N/A,,Overcast,300,2013-03-12 03:36:00
10:56 PM,28.4,23.0,80,29.82,10.0,WNW,6.9,-,N/A,,Overcast,290,2013-03-12 03:56:00
11:16 PM,28.4,23.0,80,29.82,10.0,West,9.2,17.3,N/A,,Overcast,270,2013-03-12 04:16:00
11:36 PM,28.4,23.0,80,29.82,5.0,WNW,10.4,18.4,N/A,Snow,Light Snow,290,2013-03-12 04:36:00
11:56 PM,28.4,23.0,80,29.82,7.0,WNW,9.2,16.1,N/A,,Overcast,290,2013-03-12 04:56:00